World > North America > United States > Utah

Sunnyside, Utah Regional Weather

Lat: 39.55N, Lon: 110.4W
Wx Zone: UTZ010Web Search

Helpful Tip: Abbreviated, 7 Day, 14 Day Forecasts. There is a weather forecast for every taste.

Feedback


°F Click to change Sunnyside hourly weather to Imperial units.Click to change Sunnyside hourly weather to Metric units. °C
Sunnyside Weather Map
UTC Time: 5/19/2021, 02:35
Your Time:

Sunnyside, UT Regional Weather

Expires:202105190300;;339735
ASUS45 KSLC 190210
RWRUT 

UTAH REGIONAL WEATHER ROUNDUP
NATIONAL WEATHER SERVICE SALT LAKE CITY UT
800 PM MDT TUE MAY 18 2021


UTZ001>011-023>025-190300-

NORTHERN UTAH
  
CITY           SKY/WX    TMP DP  RH WIND       PRES   REMARKS
BRIGHAM CITY   PTCLDY    78  30  17 S7        29.83S                  
HILL AFB       NOT AVBL                                               
LOGAN          PTCLDY    75  38  26 SW3       29.83S                  
OGDEN          CLEAR     77  34  21 SW5       29.83F                  
SALT LAKE CITY PTCLDY    79  30  16 NE6       29.83S                  
TOOELE VALLEY  CLEAR     75  41  29 NE3       29.84F                  
WENDOVER       CLEAR     81  29  15 W16       29.81S                  
HEBER CITY       N/A     70  32  24 W5        29.90S                  
WEST JORDAN    CLEAR     74  43  31 N6        29.86F                  

$$


SKY/WX - Weather  TMP - Temperature  DP - Dew Point  RH - Relative Humidity
WIND - Wind Direction/Speed PRES - Barometric Pressure VSB - Visibility
WCI - Wind Chill Index E13G22 Wind - East Wind 13 mph/Gusts of 22 mph